SHT3Q EGPH-EGLL

Flight info

Callsign SHT3Q
Flight time 1h 2m
Altitude 33000
Route GOSAM DCT FENIK L612 ELBUS DCT LAKEY DCT NUGRA
Aircraft A320/M-SDE3FGHIRWY/LB1

Departure

Time 2026-04-23 18:43
Airport Edinburgh Airport (EGPH)

Arrival

Time 2026-04-23 19:45
Airport London Heathrow Airport (EGLL)
Time Latitude Longitude Altitude Speed Heading
2026-04-23 18:17 55.94943 -3.36360 112 ft 0 kts 148°
2026-04-23 18:24 55.94944 -3.36360 116 ft 0 kts 148°
2026-04-23 18:24 55.94944 -3.36361 116 ft 0 kts 148°
2026-04-23 18:32 55.94947 -3.36364 113 ft 3 kts 149°
2026-04-23 18:32 55.94967 -3.36386 113 ft 1 kts 148°
2026-04-23 18:32 55.94988 -3.36406 113 ft 4 kts 168°
2026-04-23 18:33 55.95011 -3.36402 115 ft 4 kts 227°
2026-04-23 18:33 55.95015 -3.36393 112 ft 0 kts 238°
2026-04-23 18:37 55.95010 -3.36408 116 ft 4 kts 238°
2026-04-23 18:37 55.94985 -3.36481 112 ft 9 kts 238°
2026-04-23 18:38 55.94947 -3.36594 112 ft 12 kts 238°
2026-04-23 18:38 55.94903 -3.36725 113 ft 13 kts 239°
2026-04-23 18:38 55.94924 -3.36867 111 ft 12 kts 280°
2026-04-23 18:38 55.94884 -3.37022 115 ft 15 kts 238°
2026-04-23 18:39 55.94821 -3.37202 114 ft 19 kts 237°
2026-04-23 18:39 55.94748 -3.37421 113 ft 22 kts 239°
2026-04-23 18:39 55.94670 -3.37653 113 ft 21 kts 239°
2026-04-23 18:39 55.94598 -3.37862 113 ft 19 kts 239°
2026-04-23 18:40 55.94531 -3.38062 113 ft 19 kts 239°
2026-04-23 18:40 55.94461 -3.38269 113 ft 18 kts 239°
2026-04-23 18:40 55.94401 -3.38445 114 ft 15 kts 238°
2026-04-23 18:40 55.94342 -3.38617 114 ft 18 kts 239°
2026-04-23 18:41 55.94296 -3.38751 111 ft 13 kts 239°
2026-04-23 18:41 55.94294 -3.38874 113 ft 10 kts 314°
2026-04-23 18:41 55.94355 -3.38941 113 ft 12 kts 328°
2026-04-23 18:41 55.94406 -3.38979 114 ft 4 kts 39°
2026-04-23 18:42 55.94434 -3.38919 114 ft 8 kts 57°
2026-04-23 18:42 55.94467 -3.38821 114 ft 24 kts 58°
2026-04-23 18:42 55.94691 -3.38160 111 ft 96 kts 59°
2026-04-23 18:42 55.95131 -3.36847 120 ft 147 kts 60°
2026-04-23 18:43 55.95658 -3.35262 756 ft 147 kts 58°
2026-04-23 18:43 55.96288 -3.33807 1387 ft 156 kts 43°
2026-04-23 18:43 55.97172 -3.32409 1661 ft 181 kts 42°
2026-04-23 18:43 55.98187 -3.30827 2011 ft 207 kts 44°
2026-04-23 18:44 55.99332 -3.29027 2481 ft 232 kts 38°
2026-04-23 18:44 56.00890 -3.28037 2987 ft 255 kts 359°
2026-04-23 18:44 56.02574 -3.29015 3845 ft 262 kts 322°
2026-04-23 18:44 56.03644 -3.31622 4807 ft 265 kts 287°
2026-04-23 18:45 56.03756 -3.34956 5633 ft 268 kts 261°
2026-04-23 18:45 56.03308 -3.38176 5907 ft 266 kts 251°
2026-04-23 18:45 56.02671 -3.41291 6010 ft 266 kts 248°
2026-04-23 18:45 56.02307 -3.43002 6009 ft 265 kts 248°
2026-04-23 18:46 56.01706 -3.45927 6011 ft 265 kts 249°
2026-04-23 18:46 56.01108 -3.49060 5995 ft 265 kts 252°
2026-04-23 18:46 56.00585 -3.52221 5986 ft 266 kts 254°
2026-04-23 18:47 56.00105 -3.55422 6026 ft 267 kts 254°
2026-04-23 18:47 55.99644 -3.58631 6011 ft 266 kts 255°
2026-04-23 18:47 55.99187 -3.61832 5987 ft 266 kts 255°
2026-04-23 18:47 55.98747 -3.65019 5975 ft 264 kts 255°
2026-04-23 18:48 55.98298 -3.68207 5984 ft 266 kts 255°
2026-04-23 18:48 55.97849 -3.71405 6003 ft 265 kts 255°
2026-04-23 18:48 55.97395 -3.74615 6004 ft 267 kts 255°
2026-04-23 18:48 55.96934 -3.77817 5999 ft 267 kts 254°
2026-04-23 18:49 55.96467 -3.81013 5995 ft 266 kts 255°
2026-04-23 18:49 55.95997 -3.84214 5982 ft 266 kts 254°
2026-04-23 18:49 55.95521 -3.87393 5964 ft 264 kts 254°
2026-04-23 18:49 55.95055 -3.90579 5976 ft 266 kts 255°
2026-04-23 18:50 55.94753 -3.92692 5973 ft 265 kts 255°
2026-04-23 18:50 55.94132 -3.96973 5996 ft 268 kts 251°
2026-04-23 18:50 55.93372 -3.99981 5993 ft 266 kts 238°
2026-04-23 18:50 55.92280 -4.02627 5981 ft 265 kts 226°
2026-04-23 18:51 55.90922 -4.04816 5963 ft 264 kts 215°
2026-04-23 18:51 55.89425 -4.06690 5991 ft 263 kts 214°
2026-04-23 18:51 55.87917 -4.08559 5985 ft 264 kts 214°
2026-04-23 18:51 55.86417 -4.10465 5960 ft 265 kts 215°
2026-04-23 18:52 55.84926 -4.12372 5977 ft 264 kts 215°
2026-04-23 18:52 55.83429 -4.14273 5974 ft 263 kts 215°
2026-04-23 18:52 55.81937 -4.16166 5963 ft 264 kts 215°
2026-04-23 18:52 55.80441 -4.18065 5990 ft 264 kts 215°
2026-04-23 18:53 55.78955 -4.19938 6001 ft 265 kts 215°
2026-04-23 18:53 55.77433 -4.21847 6193 ft 269 kts 215°
2026-04-23 18:53 55.75899 -4.23793 7213 ft 274 kts 215°
2026-04-23 18:53 55.74339 -4.25734 8209 ft 273 kts 212°
2026-04-23 18:54 55.72589 -4.27081 9144 ft 277 kts 194°
2026-04-23 18:54 55.71316 -4.27389 9767 ft 280 kts 182°
2026-04-23 18:54 55.69373 -4.26916 10624 ft 287 kts 165°
2026-04-23 18:54 55.67475 -4.25354 10881 ft 314 kts 152°
2026-04-23 18:55 55.65476 -4.23374 11215 ft 334 kts 152°
2026-04-23 18:55 55.63453 -4.21352 11864 ft 341 kts 152°
2026-04-23 18:55 55.61377 -4.19286 12676 ft 343 kts 152°
2026-04-23 18:55 55.59278 -4.17213 13394 ft 348 kts 152°
2026-04-23 18:56 55.57145 -4.15117 14135 ft 352 kts 152°
2026-04-23 18:56 55.54980 -4.13051 14789 ft 357 kts 152°
2026-04-23 18:56 55.52798 -4.10944 15445 ft 360 kts 152°
2026-04-23 18:56 55.50602 -4.08785 16100 ft 363 kts 151°
2026-04-23 18:57 55.48378 -4.06609 16748 ft 366 kts 152°
2026-04-23 18:57 55.46123 -4.04497 17393 ft 369 kts 153°
2026-04-23 18:57 55.43827 -4.02416 18054 ft 372 kts 153°
2026-04-23 18:57 55.41514 -4.00358 18741 ft 374 kts 154°
2026-04-23 18:58 55.39178 -3.98295 19348 ft 377 kts 154°
2026-04-23 18:58 55.36825 -3.96216 19934 ft 380 kts 154°
2026-04-23 18:58 55.34447 -3.94105 20509 ft 384 kts 153°
2026-04-23 18:58 55.32048 -3.91967 21072 ft 387 kts 153°
2026-04-23 18:59 55.29642 -3.89815 21645 ft 390 kts 153°
2026-04-23 18:59 55.27213 -3.87643 22137 ft 394 kts 153°
2026-04-23 18:59 55.24747 -3.85445 22634 ft 398 kts 153°
2026-04-23 18:59 55.22262 -3.83234 23115 ft 402 kts 153°
2026-04-23 19:00 55.19754 -3.81005 23605 ft 406 kts 153°
2026-04-23 19:00 55.17224 -3.78757 24075 ft 410 kts 153°
2026-04-23 19:00 55.14666 -3.76488 24483 ft 414 kts 153°
2026-04-23 19:00 55.12087 -3.74204 24904 ft 417 kts 153°
2026-04-23 19:01 55.09490 -3.71908 25322 ft 420 kts 153°
2026-04-23 19:01 55.06872 -3.69602 25726 ft 423 kts 153°
2026-04-23 19:01 55.04230 -3.67279 26114 ft 427 kts 153°
2026-04-23 19:01 55.01565 -3.64938 26516 ft 430 kts 153°
2026-04-23 19:02 54.98892 -3.62591 26919 ft 433 kts 153°
2026-04-23 19:02 54.96192 -3.60220 27307 ft 436 kts 153°
2026-04-23 19:02 54.93479 -3.57841 27691 ft 439 kts 153°
2026-04-23 19:02 54.90742 -3.55449 28128 ft 441 kts 153°
2026-04-23 19:03 54.87989 -3.53051 28533 ft 444 kts 153°
2026-04-23 19:03 54.85220 -3.50642 28933 ft 447 kts 153°
2026-04-23 19:03 54.82424 -3.48208 29324 ft 450 kts 153°
2026-04-23 19:03 54.79620 -3.45769 29703 ft 453 kts 153°
2026-04-23 19:04 54.76796 -3.43316 30080 ft 456 kts 153°
2026-04-23 19:04 54.73945 -3.40845 30460 ft 459 kts 153°
2026-04-23 19:04 54.71085 -3.38375 30769 ft 462 kts 153°
2026-04-23 19:04 54.68198 -3.35886 31075 ft 465 kts 153°
2026-04-23 19:05 54.65300 -3.33388 31424 ft 467 kts 153°
2026-04-23 19:05 54.62395 -3.30888 31880 ft 466 kts 153°
2026-04-23 19:05 54.59490 -3.28392 32329 ft 466 kts 153°
2026-04-23 19:05 54.56579 -3.25895 32785 ft 466 kts 153°
2026-04-23 19:06 54.53676 -3.23409 33234 ft 466 kts 153°
2026-04-23 19:06 54.50768 -3.20925 33414 ft 466 kts 152°
2026-04-23 19:06 54.47870 -3.18454 33431 ft 464 kts 153°
2026-04-23 19:07 54.42092 -3.13528 33424 ft 463 kts 152°
2026-04-23 19:07 54.36311 -3.08611 33424 ft 463 kts 152°
2026-04-23 19:08 54.30526 -3.03712 33426 ft 463 kts 152°
2026-04-23 19:08 54.24742 -2.98845 33426 ft 464 kts 154°
2026-04-23 19:09 54.18665 -2.95110 33426 ft 465 kts 160°
2026-04-23 19:09 54.12528 -2.91590 33421 ft 465 kts 160°
2026-04-23 19:10 54.06394 -2.88063 33420 ft 465 kts 160°
2026-04-23 19:10 54.00257 -2.84545 33418 ft 466 kts 160°
2026-04-23 19:11 53.94096 -2.81042 33426 ft 466 kts 160°
2026-04-23 19:11 53.87935 -2.77553 33424 ft 466 kts 160°
2026-04-23 19:12 53.82819 -2.74662 33424 ft 466 kts 160°
2026-04-23 19:12 53.75688 -2.70629 33433 ft 466 kts 160°
2026-04-23 19:13 53.69525 -2.67151 33435 ft 466 kts 160°
2026-04-23 19:13 53.63397 -2.63717 33429 ft 467 kts 160°
2026-04-23 19:14 53.57236 -2.60265 33428 ft 467 kts 160°
2026-04-23 19:14 53.51065 -2.56819 33444 ft 467 kts 160°
2026-04-23 19:15 53.44899 -2.53405 33442 ft 466 kts 160°
2026-04-23 19:15 53.38742 -2.50012 33451 ft 466 kts 160°
2026-04-23 19:16 53.32579 -2.46605 33452 ft 465 kts 160°
2026-04-23 19:16 53.26432 -2.43214 33451 ft 465 kts 160°
2026-04-23 19:17 53.17204 -2.38146 33439 ft 465 kts 160°
2026-04-23 19:17 53.11048 -2.34783 33437 ft 466 kts 160°
2026-04-23 19:18 53.04902 -2.31429 32825 ft 463 kts 159°
2026-04-23 19:18 53.01961 -2.29258 32045 ft 462 kts 149°
2026-04-23 19:18 52.99223 -2.26462 31258 ft 463 kts 145°
2026-04-23 19:19 52.93802 -2.20747 29955 ft 458 kts 145°
2026-04-23 19:19 52.91116 -2.17937 29342 ft 454 kts 145°
2026-04-23 19:20 52.85865 -2.12461 28195 ft 444 kts 145°
2026-04-23 19:20 52.83260 -2.09747 27623 ft 439 kts 145°
2026-04-23 19:20 52.80699 -2.07081 27058 ft 435 kts 145°
2026-04-23 19:20 52.78137 -2.04423 26503 ft 431 kts 145°
2026-04-23 19:21 52.75610 -2.01808 25963 ft 426 kts 145°
2026-04-23 19:21 52.70673 -1.96695 25160 ft 410 kts 146°
2026-04-23 19:21 52.68270 -1.94206 24689 ft 405 kts 146°
2026-04-23 19:22 52.65895 -1.91748 24211 ft 401 kts 146°
2026-04-23 19:22 52.63539 -1.89312 23678 ft 398 kts 146°
2026-04-23 19:22 52.58878 -1.84517 22598 ft 391 kts 146°
2026-04-23 19:23 52.56580 -1.82157 22067 ft 388 kts 147°
2026-04-23 19:23 52.54301 -1.79823 21543 ft 384 kts 147°
2026-04-23 19:23 52.52045 -1.77515 21030 ft 381 kts 147°
2026-04-23 19:24 52.47591 -1.72952 20386 ft 376 kts 146°
2026-04-23 19:24 52.45369 -1.70677 20405 ft 376 kts 146°
2026-04-23 19:24 52.40915 -1.66137 20409 ft 377 kts 146°
2026-04-23 19:25 52.36465 -1.61612 20411 ft 377 kts 146°
2026-04-23 19:25 52.32032 -1.57117 19855 ft 371 kts 146°
2026-04-23 19:26 52.27697 -1.52735 18873 ft 365 kts 146°
2026-04-23 19:26 52.25543 -1.50557 18341 ft 362 kts 146°
2026-04-23 19:27 52.21347 -1.46178 17248 ft 354 kts 140°
2026-04-23 19:27 52.15807 -1.38459 15662 ft 345 kts 137°
2026-04-23 19:28 52.12173 -1.33388 15461 ft 345 kts 137°
2026-04-23 19:28 52.08522 -1.28302 15452 ft 346 kts 137°
2026-04-23 19:29 52.06687 -1.25754 15457 ft 346 kts 137°
2026-04-23 19:29 52.03026 -1.20682 15397 ft 345 kts 137°
2026-04-23 19:30 51.99373 -1.15644 15400 ft 344 kts 137°
2026-04-23 19:30 51.97549 -1.13134 15398 ft 344 kts 137°
2026-04-23 19:30 51.94520 -1.08951 15382 ft 341 kts 137°
2026-04-23 19:31 51.92762 -1.06529 15398 ft 323 kts 137°
2026-04-23 19:31 51.91094 -1.04234 15389 ft 306 kts 137°
2026-04-23 19:31 51.89505 -1.02053 15395 ft 292 kts 137°
2026-04-23 19:31 51.87992 -0.99981 15384 ft 278 kts 137°
2026-04-23 19:32 51.86540 -0.97992 15383 ft 267 kts 137°
2026-04-23 19:32 51.85261 -0.95875 15162 ft 261 kts 123°
2026-04-23 19:32 51.84388 -0.93337 14890 ft 258 kts 114°
2026-04-23 19:32 51.83617 -0.90768 14603 ft 256 kts 114°
2026-04-23 19:33 51.82828 -0.88173 14321 ft 256 kts 114°
2026-04-23 19:33 51.82043 -0.85607 14021 ft 254 kts 114°
2026-04-23 19:33 51.80480 -0.80503 13372 ft 252 kts 114°
2026-04-23 19:34 51.79707 -0.77981 13102 ft 249 kts 114°
2026-04-23 19:34 51.78940 -0.75489 12801 ft 247 kts 114°
2026-04-23 19:34 51.77414 -0.70526 12183 ft 246 kts 114°
2026-04-23 19:35 51.76652 -0.68061 11882 ft 245 kts 114°
2026-04-23 19:35 51.75891 -0.65603 11577 ft 245 kts 114°
2026-04-23 19:35 51.75133 -0.63146 11271 ft 244 kts 114°
2026-04-23 19:35 51.74379 -0.60701 10962 ft 242 kts 114°
2026-04-23 19:36 51.73589 -0.58314 10474 ft 242 kts 124°
2026-04-23 19:36 51.72245 -0.56702 10013 ft 248 kts 160°
2026-04-23 19:36 51.70541 -0.56723 9620 ft 248 kts 197°
2026-04-23 19:36 51.69020 -0.57862 9487 ft 234 kts 203°
2026-04-23 19:37 51.67567 -0.59035 8971 ft 237 kts 203°
2026-04-23 19:37 51.66078 -0.60242 8418 ft 241 kts 203°
2026-04-23 19:37 51.64594 -0.61450 7864 ft 235 kts 204°
2026-04-23 19:37 51.63175 -0.62608 7330 ft 229 kts 203°
2026-04-23 19:38 51.61773 -0.63748 6796 ft 223 kts 203°
2026-04-23 19:38 51.60398 -0.64863 6240 ft 219 kts 203°
2026-04-23 19:38 51.59048 -0.65953 5684 ft 215 kts 203°
2026-04-23 19:38 51.57721 -0.67027 5126 ft 211 kts 203°
2026-04-23 19:39 51.56420 -0.68077 4576 ft 209 kts 202°
2026-04-23 19:39 51.55136 -0.69113 4038 ft 201 kts 201°
2026-04-23 19:39 51.53911 -0.70102 3503 ft 195 kts 201°
2026-04-23 19:39 51.52715 -0.71065 3051 ft 186 kts 200°
2026-04-23 19:40 51.51629 -0.71948 3006 ft 166 kts 199°
2026-04-23 19:40 51.50578 -0.72594 3012 ft 159 kts 181°
2026-04-23 19:40 51.49509 -0.72521 2905 ft 150 kts 157°
2026-04-23 19:40 51.48603 -0.71802 2834 ft 143 kts 135°
2026-04-23 19:41 51.47967 -0.70624 2739 ft 138 kts 115°
2026-04-23 19:41 51.47667 -0.69186 2609 ft 135 kts 95°
2026-04-23 19:41 51.47654 -0.67688 2454 ft 134 kts 89°
2026-04-23 19:41 51.47662 -0.66200 2302 ft 133 kts 89°
2026-04-23 19:42 51.47671 -0.64720 2117 ft 132 kts 89°
2026-04-23 19:42 51.47679 -0.63249 1931 ft 130 kts 88°
2026-04-23 19:42 51.47686 -0.61878 1766 ft 118 kts 88°
2026-04-23 19:42 51.47692 -0.60597 1604 ft 112 kts 89°
2026-04-23 19:43 51.47698 -0.59355 1448 ft 111 kts 88°
2026-04-23 19:43 51.47705 -0.58123 1301 ft 111 kts 88°
2026-04-23 19:43 51.47711 -0.56872 1152 ft 114 kts 88°
2026-04-23 19:43 51.47717 -0.55598 996 ft 115 kts 87°
2026-04-23 19:44 51.47716 -0.54307 850 ft 117 kts 88°
2026-04-23 19:44 51.47733 -0.52996 661 ft 121 kts 88°
2026-04-23 19:44 51.47749 -0.51649 547 ft 121 kts 89°
2026-04-23 19:44 51.47748 -0.50288 372 ft 121 kts 90°
2026-04-23 19:45 51.47756 -0.48933 178 ft 121 kts 89°
2026-04-23 19:45 51.47758 -0.47616 104 ft 108 kts 88°
2026-04-23 19:45 51.47758 -0.46583 93 ft 69 kts 91°
2026-04-23 19:45 51.47759 -0.46070 87 ft 31 kts 90°
2026-04-23 19:46 51.47761 -0.45740 84 ft 21 kts 89°
2026-04-23 19:46 51.47758 -0.45529 87 ft 8 kts 99°
2026-04-23 19:46 51.47707 -0.45467 89 ft 12 kts 168°
2026-04-23 19:46 51.47626 -0.45463 86 ft 6 kts 174°
2026-04-23 19:47 51.47599 -0.45410 86 ft 8 kts 98°